www.pogodaiklimat.ru

Погода и климат >> Архив погоды >> Оман >> Al Mudhaibi


ПОГОДА в Al Mudhaibi

  • Прогноз погоды в Al Mudhaibi
  • Монитор погоды в Al Mudhaibi
  • Климат города

АРХИВ ПОГОДЫ в Al Mudhaibi

Время (UTC), дата Ветер
(напр.,м/с)
 
Видим.   Явления Облачность Т
(С)
Тd
(С)
f
(%)
Тe
(С)
Тes
(С)
Комфортность P
(гПа)
Po
(гПа)
Тmin
(С)
Tmax
(С)
R
(мм)
R24
(мм)
S
(см)
18 20.06 В 8 н/о н/о +34.5 +17.8 37 +38 +38 очень
душно
994.7 955.0 +47.2
21 20.06 В 4 н/о н/о +30.5 +19.9 53 +37 +37 очень
душно
995.0 954.8
00 21.06 В 4 н/о н/о +27.3 +20.8 68 +34 +34 очень
душно
995.6 955.0
03 21.06 В 3 н/о н/о +28.3 +20.9 64 +35 +35 очень
душно
996.4 955.9
06 21.06 ЮВ 3 н/о н/о +37.2 +17.5 31 +40 +40 очень
душно
995.8 956.4 +26.5
09 21.06 Ю 4 н/о н/о +43.4 +8.9 13 +42 +42 опасность
перегрева
993.9 955.1
12 21.06 Ю 7 н/о н/о +45.1 +1.6 7 +42 +42 опасность
перегрева
992.3 953.8 1
15 21.06 Ю 5 н/о н/о +42.4 +10.9 16 +39 +39 очень
жарко
993.4 954.5
18 21.06 ЮВ 7 н/о н/о +32.6 +22.4 55 +42 +42 опасность
перегрева
996.8 956.9 +45.8
21 21.06 В 5 н/о н/о +28.6 +21.9 67 +37 +37 очень
душно
997.7 957.1
00 22.06 СВ 2 н/о н/о +28.3 +19.6 59 +34 +34 очень
душно
998.2 957.6 1
03 22.06 В 3 н/о н/о +30.5 +16.6 43 +34 +34 очень
душно
999.6 959.1
06 22.06 ЮВ 3 н/о н/о +37.8 +10.4 19 +37 +37 очень
жарко
998.7 959.1 +28.0
09 22.06 Ю 4 н/о н/о +42.6 +6.8 12 +40 +40 очень
жарко
996.8 957.8
12 22.06 Ю 4 н/о н/о +44.0 +7.3 11 +42 +42 опасность
перегрева
995.0 956.2
15 22.06 Ю 4 н/о н/о +42.4 +13.4 18 +39 +39 очень
жарко
995.5 956.5
18 22.06 ЮВ 5 н/о н/о +35.7 +20.2 40 +42 +42 опасность
перегрева
997.8 958.1 +44.7
21 22.06 В 5 н/о н/о +29.5 +22.7 67 +39 +39 очень
душно
999.1 958.6
00 23.06 ЮВ 3 н/о н/о +28.4 +22.5 70 +37 +37 очень
душно
999.5 958.9
03 23.06 В 2 н/о н/о +30.0 +22.2 63 +39 +39 очень
душно
1000.5 960.0
06 23.06 Ю 3 н/о н/о +36.6 +19.3 36 +41 +41 опасность
перегрева
1000.0 960.3 +27.9
09 23.06 ЮЗ 4 н/о н/о +42.0 +11.1 16 +41 +41 опасность
перегрева
997.9 958.9
12 23.06 ЮЗ 6 н/о н/о +43.6 +7.5 12 +41 +41 опасность
перегрева
996.0 957.2
15 23.06 ЮЗ 5 н/о н/о +42.0 +6.2 12 +39 +39 очень
жарко
996.1 957.1
18 23.06 Ю 4 н/о н/о +38.1 +9.9 18 +37 +37 очень
жарко
998.1 958.6 +44.9
21 23.06 Ю 2 н/о н/о +33.4 +19.0 43 +39 +39 очень
душно
998.9 958.9
00 24.06 В 1 н/о н/о +28.8 +22.7 70 +38 +38 очень
душно
999.2 958.6
03 24.06 З 2 н/о н/о +29.8 +21.8 62 +38 +38 очень
душно
1000.1 959.6
06 24.06 ЮЗ 2 н/о н/о +36.7 +16.5 30 +39 +39 очень
душно
999.6 960.0 +28.3
09 24.06 ЮЗ 7 н/о н/о +43.1 +9.1 13 +41 +41 опасность
перегрева
996.8 957.9
12 24.06 З 7 н/о н/о +45.1 +0.7 7 +42 +42 опасность
перегрева
994.0 955.4
15 24.06 ЮЗ 5 н/о н/о +42.9 -1.4 6 +39 +39 очень
жарко
994.3 955.4
18 24.06 ЮЗ 3 н/о н/о +38.1 +0.4 9 +34 +34 очень
жарко
996.4 956.9 +45.7
21 24.06 Ю 5 н/о н/о +33.2 +10.1 24 +38 +38 очень
душно
996.1 956.2
00 25.06 В 1 н/о н/о +30.5 +18.0 47 +35 +35 очень
душно
996.3 956.0
03 25.06 СВ 2 н/о н/о +31.5 +14.3 35 +33 +33 жарко 996.9 956.6
06 25.06 З 3 н/о н/о +40.2 +5.3 12 +37 +37 очень
жарко
995.5 956.3 +28.8
09 25.06 ЮЗ 1 н/о н/о +46.3 +0.9 6 +43 +43 опасность
перегрева
993.0 954.6
12 25.06 С 4 н/о н/о +48.0 -1.3 5 +44 +44 опасность
перегрева
990.6 952.5
15 25.06 С 7 н/о н/о +44.9 +0.3 7 +41 +41 опасность
перегрева
991.1 952.6
18 25.06 С 4 н/о н/о +40.6 +3.2 10 +37 +37 очень
жарко
994.2 955.1 +48.6
21 25.06 В 3 н/о н/о +35.9 +8.6 19 +34 +34 очень
жарко
994.5 954.9
00 26.06 ЮВ 1 н/о н/о +34.8 +11.1 24 +34 +34 очень
жарко
995.0 955.2
03 26.06 СВ 3 н/о н/о +34.7 +11.2 24 +34 +34 очень
жарко
996.1 956.2
06 26.06 СВ 1 н/о н/о +41.7 +6.8 12 +39 +39 очень
жарко
995.6 956.6 +32.4
09 26.06 СЗ 3 н/о н/о +46.2 +0.7 6 +42 +42 опасность
перегрева
993.4 955.0
12 26.06 ЮЗ 2 н/о н/о +47.0 -0.0 6 +43 +43 опасность
перегрева
991.4 953.1
15 26.06 ЮВ 9 н/о н/о +42.9 +9.9 14 +41 +41 опасность
перегрева
993.5 954.7
18 26.06 ЮВ 3 н/о н/о +37.5 +11.5 21 +37 +37 очень
жарко
996.6 957.1 +48.3
21 26.06 ЮВ 2 н/о н/о +34.1 +13.7 29 +35 +35 очень
жарко
996.4 956.5
00 27.06 В 2 н/о н/о +32.3 +14.6 34 +34 +34 душно 996.0 955.9
03 27.06 З 3 н/о н/о +32.9 +15.0 34 +35 +35 душно 997.3 957.2
06 27.06 СЗ 4 н/о н/о +41.8 +9.7 15 +40 +40 очень
жарко
996.0 957.0 +31.5
09 27.06 В 4 н/о н/о +45.9 +7.3 10 +43 +43 опасность
перегрева
993.6 955.1
12 27.06 В 3 н/о н/о +45.8 +7.1 10 +43 +43 опасность
перегрева
991.8 953.4
15 27.06 Ю 9 н/о н/о +41.9 +14.1 20 +42 +42 опасность
перегрева
993.3 954.5

 

Местоположение метеостанции Al Mudhaibi (Оман): широта 22.51 долгота 58.13 высота над уровнем моря 378 м.

В архиве по умолчанию представлена погода в Al Mudhaibi за последнюю неделю. Архивные данные за месяц целиком и за предыдущие месяцы, начиная с января 2011 года, Вы можете получить, выбрав интересующий диапазон дат из раскрывающегося списка и нажав кнопку "Ввод!".

Внимание! Время в таблицах - всемирное. Для получения местного времени необходимо прибавить поправку, которая в Al Mudhaibi равна 4 ч.

Смотрите также архив погоды в соседних городах и на ближайших метеорологических станциях:

Погода в Ibra (Оман) (45 км)
Погода в Adam (Оман) (64 км)
Погода в Nizwa (Оман) (72 км)
Погода в Bidiya (Оман) (74 км)
Погода в Saiq (Оман) (81 км)
Погода в Samail (Оман) (90 км)
Погода в Bahla (Оман) (100 км)
Погода в Al Amerat (Оман) (116 км)
Погода в Jabal Shams (Оман) (120 км)
Погода в Seeb (Оман) (120 км)

Пояснения к столбцам:

Ветер - указаны скорость ветра в м/с - средняя за 10 мин, порывы в срок и между сроками (в фигурных скобках) и направление, откуда дует ветер: С - северный, СВ - северо-восточный, В - восточный, ЮВ - юго-восточный, Ю - южный, ЮЗ - юго-западный, З - западный, СЗ - северо-западный.
Видимость - горизонтальная дальность видимости в метрах или километрах. При видимости от 1 до 10 км при отсутствии осадков обычно наблюдается дымка, при ухудшении видимости до 1 км и менее - туман. В сухую погоду видимость может ухудшаться дымом, пылью или мглою.
Явления - указаны атмосферные явления, наблюдавшиеся в срок или в последний час перед сроком; фигурными скобками обозначены явления, наблюдавшиеся между сроками (за 1-3 часа до срока); квадратными скобками обозначены град или гололедные отложения с указанием их диаметра в мм.
Облачность - указаны через наклонную черту общая и нижняя облачность в баллах и высота нижней границы облаков в метрах; квадратными скобками обозначены формы облаков: Ci - перистые, Cs - перисто-слоистые, Cc - перисто-кучевые, Ac - высококучевые, As - высокослоистые, Sc - слоисто-кучевые, Ns - слоисто-дождевые, Cu - кучевые, Cb - кучево-дождевые. Подробнее классификацию облаков см. в Атласе облаков (PDF).
T - Температура воздуха - температура, измеренная на высоте 2 м над землей.
Td - Температура точки росы - температура, при понижении до которой содержащийся в воздухе водяной пар достигнет насыщения.
f - Относительная влажность воздуха - влажноcть воздуха, измеренная на высоте 2 м над землей.
Te - Эффективная температура - температура, которую ощущает одетый по сезону человек в тени. Характеристика душности погоды. При расчете учитывается влияние влажности воздуха и скорости ветра на теплоощущения человека.
Tes - Эффективная температура на солнце - температура, которую ощущает человек, с поправкой на солнечный нагрев. Характеристика знойности погоды. Зависит от высоты солнца над горизонтом, облачности и скорости ветра. Ночью, в пасмурную погоду, а также при ветре 12 м/с и более поправка равна нулю.
P - Атмосферное давление - приведенное к уровню моря атмосферное давление.
Po - Атмосферное давление - измеренное на уровне метеостанции атмосферное давление.
Tmin - Минимальная температура - минимум температуры воздуха на высоте 2 м над землей.
Tmax - Максимальная температура - максимум температуры воздуха на высоте 2 м над землей.
R - Количество осадков - Количество выпавших осадков за период времени, мм. При наведении курсора мыши на число - период времени, за который выпало указанное количество осадков.
R24 - Количество осадков - Количество выпавших осадков за 24 часа, мм.
S - Снежный покров - Высота снежного покрова, см. При наведении курсора мыши на число - состояние снежного покрова и степень покрытия местности в баллах.